Back to catalog

CZ-6A DEB

AliveSSO
NORAD 55198·DEBRIS·🇨🇳 China

Launched Nov 11, 2022 from Taiyuan Satellite Launch Center

Loading…

Next Passes (next 24 hours)

TLE

FreshSource: Space-Track

Epoch: Sep 14, 2026, 10:27 UTC

1 55198U 22151VP  26257.43549131  .00004309  00000-0  84000-3 0  9992
2 55198  98.6129 319.0597 0090189  32.4646 328.2056 14.60979868197675

Track CZ-6A DEB in real time with AllMySat

Download on the App Store